Content
SEND FEEDBACK

Daily
Averages
Monthly
Summary
United States of America

GREENSBURG, INDIANA


Home > North America > United States > Indiana
Elevation: 949 feet     Latitude: 39 20N     Longitude: 085 28W

WEATHER
 
SELECT A DAY
Number of Records: 173,019;   Date Range: 10/15/98 - 8/28/14
 
SHARE

PRINT THIS DATA

[ ← Previous Day ]
WEATHER ALMANAC - MAY 12, 2014
[ Next Day → ]
[ °C ]   °F
Weather ElementAverageHighLow
Temperature73 °F86 °F (2:53 pm)64.9 °F (4:53 am)
Dewpoint63.8 °F68 °F (10:53 am)60.1 °F (2:53 am)
Humidity73.8 %87 % (4:53 am)53 % (2:53 pm)
Barometer30.01 in30.04 in (2:46 am)29.95 in (9:53 pm)
Wind Speed12.4 mph21.9 mph (3:53 pm)
Wind Gust28.8 mph (3:53 pm)
Weather ElementAverage
Visibility10 mi
Wind DirectionSSE (154.8 °)

Weather ElementTotal
Precipitation0.03 in
Cooling Degree Days10.5 (Base 65)
Growing Degree Days25.5 (Base 50)
Averaged from 25 records on May 12, 2014
WEATHER CONDITIONS BREAKOUT
WIND DIRECTION BREAKOUT
WEATHER BY HOUR - MAY 12, 2014
[ °C ]   °F
Local TimeTemperatureDewpointHumidityBarometerVisibilityWind DirectionWind SpeedGust SpeedPrecipitationEventsConditions
1:53 AM71.1 °F63.0 °F75 %29.99 in10.0 miSouth (180°)8.1 mphMostly Cloudy
2:25 AM69.1 °F64.0 °F84 %30.02 in10.0 miNorth (10°)12.7 mph16.1 mph0.01 inThunderstormOvercast
2:46 AM68.0 °F61.0 °F78 %30.04 in10.0 miNorth (360°)16.1 mph0.01 inOvercast
2:53 AM68.0 °F60.1 °F76 %30.01 in10.0 miNNE (30°)15.0 mph21.9 mph0.01 inThunderstormOvercast
3:42 AM66.0 °F61.0 °F84 %30.03 in10.0 miENE (70°)9.2 mphOvercast
3:53 AM66.0 °F61.0 °F84 %30.01 in10.0 miEast (90°)9.2 mphOvercast
4:28 AM66.0 °F61.0 °F84 %30.03 in10.0 miEast (80°)9.2 mphOvercast
4:53 AM64.9 °F61.0 °F87 %30.01 in10.0 miSE (130°)5.8 mphMostly Cloudy
5:53 AM64.9 °F61.0 °F87 %30.01 in10.0 miESE (120°)8.1 mphPartly Cloudy
6:53 AM64.9 °F60.1 °F84 %30.01 in10.0 miSE (130°)11.5 mphPartly Cloudy
7:53 AM68.0 °F62.1 °F81 %30.02 in10.0 miSE (140°)12.7 mphPartly Cloudy
8:53 AM73.0 °F64.9 °F76 %30.02 in10.0 miSSE (160°)12.7 mphClear
10:53 AM79.0 °F68.0 °F69 %30.01 in10.0 miSSW (210°)13.8 mphClear
11:53 AM82.0 °F68.0 °F62 %30.02 in10.0 miSW (220°)15.0 mph24.2 mphMostly Cloudy
12:53 PM84.0 °F68.0 °F58 %30.03 in10.0 miSW (220°)18.4 mph24.2 mphScattered Clouds
1:53 PM82.9 °F66.0 °F56 %30.02 in10.0 miSW (220°)20.7 mphMostly Cloudy
2:53 PM86.0 °F66.9 °F53 %30.01 in10.0 miSW (230°)19.6 mphMostly Cloudy
3:53 PM82.0 °F66.0 °F58 %30.00 in10.0 miSW (230°)21.9 mph28.8 mphPartly Cloudy
4:53 PM79.0 °F66.0 °F64 %29.98 in10.0 miSSW (210°)16.1 mphClear
5:53 PM77.0 °F66.0 °F69 %29.98 in10.0 miSouth (180°)15.0 mphPartly Cloudy
6:53 PM77.0 °F63.0 °F62 %29.99 in10.0 miSouth (190°)13.8 mphMostly Cloudy
7:53 PM73.9 °F64.0 °F71 %29.97 in10.0 miSouth (170°)6.9 mphClear
8:53 PM73.0 °F64.9 °F76 %29.96 in10.0 miSSE (150°)9.2 mphClear
9:53 PM71.1 °F64.9 °F81 %29.95 in10.0 miSE (140°)9.2 mphClear
11:53 PM68.0 °F64.0 °F87 %30.01 in10.0 miCalmClear
Hourly data recorded from KGEZ, located miles away from Greensburg, Indiana







STORIES FROM OUR PARTNERS